Terminal Aerodrome Forecast
Issued by NWS Upton, NY

Home | Current Version | Previous Version | Text Only | Print | Product List | Glossary On
Versions: 1 2 3 4 5 6 7 8 9 10 11 12 13 14 15 16 17 18 19 20 21 22 23 24 25 26
000
FTUS41 KOKX 290500
TAFBDR
TAF
KBDR 290531Z 2906/3006 VRB03KT P6SM SKC
     FM292000 15006KT P6SM SCT025 BKN100
     FM300300 18008KT P6SM BKN025 BKN050=

USA.gov is the U.S. government's official web portal to all federal, state and local government web resources and services.